Weather History for Albuquerque, NM

Change the Weather History Date:

Wednesday, August 21, 2013

  Actual Average Record
Temperature  
Mean Temperature 78 °F 76 °F  
Max Temperature 89 °F 87 °F 97 °F (1938)
Min Temperature 66 °F 65 °F 54 °F (1915)
Degree Days  
Heating Degree Days 0 0  
Month to date heating degree days 0 0  
Since 1 June heating degree days 0 4  
Since 1 July heating degree days 0 0  
Cooling Degree Days 13 11  
Month to date cooling degree days 267 245  
Year to date cooling degree days 1245 1056  
Since 1 June cooling degree days 1128 958  
Growing Degree Days 27 (Base 50)    
Moisture  
Dew Point 51 °F    
Average Humidity 45    
Maximum Humidity 63    
Minimum Humidity 26    
Precipitation  
Precipitation 0.01 in 0.04 in 0.77 in (1909)
Month to date precipitation 0.27 1.15  
Year to date precipitation 3.74 5.85  
Snow  
Snow 0.00 in - - ()
Month to date snowfall 0.0  
Since 1 June snowfall 0.0  
Since 1 July snowfall 0.0  
Snow Depth 0.00 in    
Sea Level Pressure  
Sea Level Pressure 29.94 in    
Wind  
Wind Speed 6 mph (South)    
Max Wind Speed 32 mph    
Max Gust Speed 39 mph    
Visibility 10 miles    
Events Rain , Thunderstorm    
T = Trace of Precipitation, MM = Missing Value Source: NWS Daily Summary

Daily Weather History Graph

Daily Weather History Graph

Search for Another Location

Airport:

Trip Planner

Search our weather history database for the weather conditions in past years. The results will help you decide how hot, cold, wet, or windy it might be!

Date:

Astronomy

Aug. 21, 2013 Rise Set
Actual Time 6:31 AM MDT 7:47 PM MDT
Civil Twilight 6:04 AM MDT 8:13 PM MDT
Nautical Twilight 5:33 AM MDT 8:45 PM MDT
Astronomical Twilight 5:00 AM MDT 9:17 PM MDT
Moon 8:02 PM MDT (8/21) 7:10 AM MDT (8/21)
Length of Visible Light 14h 08m
Length of Day
13h 16m
Full, 99% of the Moon is Illuminated
Aug 21
Full
Aug 28
Last Quarter
Sep 5
New
Sep 12
First Quarter
Sep 19
Full

Hourly Weather History & Observations

Time (MDT) Temp. Heat Index Dew Point Humidity Pressure Visibility Wind Dir Wind Speed Gust Speed Precip Events Conditions
12:52 AM 75.9 °F - 53.1 °F 45% 29.90 in 10.0 mi Calm Calm - N/A   Mostly Cloudy
1:52 AM 72.0 °F - 54.0 °F 53% 29.90 in 10.0 mi ESE 6.9 mph - N/A   Mostly Cloudy
2:52 AM 73.9 °F - 53.1 °F 48% 29.89 in 10.0 mi Calm Calm - N/A   Mostly Cloudy
3:52 AM 73.0 °F - 54.0 °F 51% 29.88 in 10.0 mi Calm Calm - N/A   Scattered Clouds
4:52 AM 71.1 °F - 55.0 °F 57% 29.90 in 10.0 mi West 3.5 mph - N/A   Scattered Clouds
5:52 AM 66.0 °F - 54.0 °F 65% 29.93 in 10.0 mi ESE 5.8 mph - N/A   Scattered Clouds
6:52 AM 70.0 °F - 53.1 °F 55% 29.96 in 10.0 mi Calm Calm - N/A   Partly Cloudy
7:52 AM 70.0 °F - 54.0 °F 57% 29.98 in 10.0 mi Calm Calm - N/A   Partly Cloudy
8:52 AM 73.9 °F - 55.9 °F 53% 29.97 in 10.0 mi Calm Calm - N/A   Partly Cloudy
9:52 AM 77.0 °F - 55.0 °F 47% 29.97 in 10.0 mi Calm Calm - N/A   Scattered Clouds
10:52 AM 79.0 °F - 53.1 °F 40% 29.97 in 10.0 mi Variable 5.8 mph - N/A   Partly Cloudy
11:52 AM 82.9 °F 81.8 °F 53.1 °F 36% 29.94 in 10.0 mi SSW 10.4 mph - N/A   Partly Cloudy
12:52 PM 86.0 °F - 52.0 °F 31% 29.92 in 10.0 mi SW 9.2 mph - N/A   Scattered Clouds
1:52 PM 87.1 °F - 51.1 °F 29% 29.90 in 10.0 mi WSW 8.1 mph - N/A Thunderstorm Thunderstorm
2:29 PM 87.8 °F - 48.2 °F 25% 30.17 in 10.0 mi SW 8.1 mph - N/A   Mostly Cloudy
2:52 PM 88.0 °F - 48.9 °F 26% 29.88 in 10.0 mi SW 9.2 mph - N/A   Mostly Cloudy
3:19 PM 87.8 °F - 46.4 °F 24% 30.15 in 10.0 mi SSW 10.4 mph - N/A Thunderstorm Thunderstorm
3:44 PM 89.6 °F - 46.4 °F 22% 30.14 in 10.0 mi SSE 21.9 mph 26.5 mph N/A   Mostly Cloudy
3:52 PM 87.1 °F - 50.0 °F 28% 29.87 in 10.0 mi SSE 23.0 mph 32.2 mph 0.01 in   Mostly Cloudy
4:02 PM 82.4 °F 81.4 °F 53.6 °F 37% 30.15 in 10.0 mi South 26.5 mph 39.1 mph 0.00 in Rain Light Rain
4:52 PM 84.9 °F - 46.0 °F 26% 29.86 in 10.0 mi West 4.6 mph - 0.00 in   Mostly Cloudy
5:52 PM 87.1 °F - 48.0 °F 26% 29.85 in 10.0 mi East 8.1 mph - N/A   Mostly Cloudy
6:52 PM 87.1 °F - 48.9 °F 27% 29.84 in 10.0 mi South 10.4 mph - N/A   Mostly Cloudy
7:52 PM 84.0 °F - 48.9 °F 29% 29.88 in 10.0 mi South 10.4 mph - N/A   Mostly Cloudy
8:52 PM 79.0 °F - 51.1 °F 38% 29.89 in 10.0 mi SE 4.6 mph - N/A   Mostly Cloudy
9:52 PM 77.0 °F - 46.9 °F 34% 29.93 in 10.0 mi ESE 6.9 mph - N/A   Mostly Cloudy
10:52 PM 77.0 °F - 46.0 °F 33% 29.94 in 10.0 mi Calm Calm - N/A   Scattered Clouds
11:52 PM 77.0 °F - 46.9 °F 34% 29.93 in 10.0 mi South 8.1 mph - N/A   Mostly Cloudy